• In Uzbekistan
  • List of Countries
  • For 7 days
  • Water Temperature
  • Satellite Maps
  • Weather Map
  • Weather Widgets
  • user-avatar
    Login

    Hourly Weather Ordino

    Today, 28 June, Wednesday

    Time Temperature Precipitation Wind Pressure Humidity
    00:00 +10°C° 0.1 mm 1 mps 628 mmHg 91%
    01:00 +9°C° 0.1 mm 1 mps 628 mmHg 91%
    02:00 +9°C° 0.1 mm 1 mps 628 mmHg 92%
    03:00 +9°C° 0.1 mm 1 mps 627 mmHg 93%
    04:00 +9°C° 0 mm 1 mps 628 mmHg 91%
    05:00 +10°C° 0 mm 1 mps 628 mmHg 89%
    06:00 +11°C° 0 mm 1 mps 628 mmHg 86%
    07:00 +12°C° 0.2 mm 2 mps 628 mmHg 79%
    08:00 +13°C° 0.2 mm 2 mps 629 mmHg 72%
    09:00 +14°C° 0.2 mm 3 mps 629 mmHg 65%
    10:00 +14°C° 0.6 mm 3 mps 629 mmHg 64%
    11:00 +16°C° 0.6 mm 3 mps 629 mmHg 62%
    12:00 +16°C° 0.6 mm 3 mps 629 mmHg 61%
    13:00 +16°C° 1.1 mm 3 mps 628 mmHg 64%
    14:00 +14°C° 1.1 mm 3 mps 628 mmHg 67%
    15:00 +14°C° 1.1 mm 4 mps 628 mmHg 70%
    16:00 +13°C° 0.8 mm 3 mps 628 mmHg 70%
    17:00 +13°C° 0.8 mm 3 mps 628 mmHg 71%
    18:00 +13°C° 0.8 mm 2 mps 628 mmHg 71%
    19:00 +10°C° 0.5 mm 2 mps 627 mmHg 76%
    20:00 +9°C° 0.5 mm 2 mps 627 mmHg 82%
    21:00 +7°C° 0.5 mm 2 mps 627 mmHg 87%
    22:00 +8°C° 0.2 mm 1 mps 627 mmHg 87%
    23:00 +7°C° 0.2 mm 1 mps 627 mmHg 88%

    Tomorrow, 29 June, Thursday

    Time Temperature Precipitation Wind Pressure Humidity
    00:00 +7°C° 0.2 mm 1 mps 627 mmHg 89%
    01:00 +6°C° 0 mm 2 mps 627 mmHg 89%
    02:00 +6°C° 0 mm 2 mps 627 mmHg 89%
    03:00 +6°C° 0 mm 2 mps 627 mmHg 89%
    04:00 +6°C° 0 mm 2 mps 627 mmHg 87%
    05:00 +7°C° 0 mm 2 mps 628 mmHg 85%
    06:00 +8°C° 0 mm 1 mps 628 mmHg 84%
    07:00 +9°C° 0 mm 2 mps 629 mmHg 76%
    08:00 +10°C° 0 mm 2 mps 629 mmHg 69%
    09:00 +12°C° 0 mm 3 mps 630 mmHg 62%
    10:00 +12°C° 0.2 mm 3 mps 630 mmHg 59%
    11:00 +13°C° 0.2 mm 3 mps 630 mmHg 56%
    12:00 +13°C° 0.2 mm 4 mps 630 mmHg 52%
    13:00 +13°C° 0.5 mm 4 mps 630 mmHg 53%
    14:00 +13°C° 0.5 mm 4 mps 630 mmHg 54%
    15:00 +13°C° 0.5 mm 4 mps 630 mmHg 54%
    16:00 +12°C° 0.6 mm 3 mps 630 mmHg 59%
    17:00 +11°C° 0.6 mm 3 mps 630 mmHg 64%
    18:00 +10°C° 0.6 mm 2 mps 629 mmHg 69%
    19:00 +8°C° 0.4 mm 2 mps 629 mmHg 75%
    20:00 +7°C° 0.4 mm 1 mps 629 mmHg 81%
    21:00 +6°C° 0.4 mm 1 mps 629 mmHg 86%
    22:00 +5°C° 0.1 mm 1 mps 629 mmHg 88%
    23:00 +5°C° 0.1 mm 1 mps 629 mmHg 89%

    Day after tomorrow, 30 June, Friday

    Time Temperature Precipitation Wind Pressure Humidity
    00:00 +4°C° 0.1 mm 1 mps 629 mmHg 90%
    01:00 +3°C° 0 mm 1 mps 628 mmHg 90%
    02:00 +3°C° 0 mm 1 mps 628 mmHg 91%
    03:00 +1°C° 0 mm 0 mps 628 mmHg 91%
    04:00 +4°C° 0 mm 1 mps 628 mmHg 88%
    05:00 +5°C° 0 mm 1 mps 629 mmHg 84%
    06:00 +7°C° 0 mm 1 mps 630 mmHg 80%
    07:00 +9°C° 0 mm 1 mps 631 mmHg 68%
    08:00 +10°C° 0 mm 2 mps 632 mmHg 56%
    09:00 +12°C° 0 mm 3 mps 632 mmHg 44%
    10:00 +12°C° 0.1 mm 3 mps 633 mmHg 44%
    11:00 +13°C° 0.1 mm 3 mps 633 mmHg 44%
    12:00 +14°C° 0.1 mm 3 mps 633 mmHg 44%
    13:00 +13°C° 0.5 mm 3 mps 633 mmHg 50%
    14:00 +13°C° 0.5 mm 3 mps 633 mmHg 55%
    15:00 +12°C° 0.5 mm 3 mps 633 mmHg 61%
    16:00 +11°C° 0.6 mm 3 mps 632 mmHg 66%
    17:00 +10°C° 0.6 mm 3 mps 632 mmHg 70%
    18:00 +10°C° 0.6 mm 3 mps 632 mmHg 74%
    19:00 +8°C° 0.2 mm 2 mps 632 mmHg 79%
    20:00 +7°C° 0.2 mm 2 mps 632 mmHg 84%
    21:00 +6°C° 0.2 mm 2 mps 632 mmHg 89%
    22:00 +6°C° 0.1 mm 1 mps 632 mmHg 89%
    23:00 +6°C° 0.1 mm 1 mps 632 mmHg 89%

    1 July, Saturday

    Time Temperature Precipitation Wind Pressure Humidity
    00:00 +5°C° 0.1 mm 1 mps 632 mmHg 89%
    01:00 +5°C° 0 mm 1 mps 632 mmHg 90%
    02:00 +5°C° 0 mm 1 mps 632 mmHg 90%
    03:00 +5°C° 0 mm 1 mps 632 mmHg 90%
    04:00 +6°C° 0 mm 1 mps 632 mmHg 87%
    05:00 +7°C° 0 mm 1 mps 633 mmHg 83%
    06:00 +8°C° 0 mm 1 mps 633 mmHg 79%
    07:00 +8°C° 0.1 mm 2 mps 634 mmHg 76%
    08:00 +9°C° 0.1 mm 2 mps 634 mmHg 73%
    09:00 +10°C° 0.1 mm 2 mps 635 mmHg 70%
    10:00 +11°C° 0.4 mm 3 mps 636 mmHg 67%
    11:00 +12°C° 0.4 mm 3 mps 636 mmHg 64%
    12:00 +13°C° 0.4 mm 3 mps 636 mmHg 61%
    13:00 +14°C° 0.2 mm 4 mps 637 mmHg 59%
    14:00 +14°C° 0.2 mm 4 mps 637 mmHg 56%
    15:00 +15°C° 0.2 mm 4 mps 637 mmHg 53%
    16:00 +13°C° 0.1 mm 4 mps 637 mmHg 60%
    17:00 +12°C° 0.1 mm 3 mps 637 mmHg 66%
    18:00 +11°C° 0.1 mm 3 mps 636 mmHg 72%
    19:00 +10°C° 0.2 mm 3 mps 637 mmHg 76%
    20:00 +9°C° 0.2 mm 3 mps 637 mmHg 80%
    21:00 +8°C° 0.2 mm 3 mps 637 mmHg 84%
    22:00 +8°C° 0.1 mm 3 mps 637 mmHg 85%
    23:00 +8°C° 0.1 mm 3 mps 637 mmHg 87%

    2 July, Sunday

    Time Temperature Precipitation Wind Pressure Humidity
    00:00 +7°C° 0.1 mm 3 mps 637 mmHg 89%
    01:00 +7°C° 0 mm 3 mps 637 mmHg 89%
    02:00 +5°C° 0 mm 3 mps 637 mmHg 89%
    03:00 +5°C° 0 mm 3 mps 637 mmHg 89%
    04:00 +5°C° 0 mm 3 mps 637 mmHg 85%
    05:00 +7°C° 0 mm 3 mps 637 mmHg 81%
    06:00 +8°C° 0 mm 3 mps 638 mmHg 77%
    07:00 +10°C° 0 mm 3 mps 639 mmHg 66%
    08:00 +12°C° 0 mm 3 mps 640 mmHg 55%
    09:00 +16°C° 0 mm 3 mps 641 mmHg 44%
    10:00 +17°C° 0 mm 3 mps 641 mmHg 42%
    11:00 +18°C° 0 mm 4 mps 641 mmHg 39%
    12:00 +20°C° 0 mm 4 mps 642 mmHg 37%
    13:00 +20°C° 0 mm 3 mps 642 mmHg 40%
    14:00 +20°C° 0 mm 3 mps 641 mmHg 42%
    15:00 +20°C° 0 mm 3 mps 641 mmHg 44%
    16:00 +19°C° 0 mm 3 mps 641 mmHg 50%
    17:00 +18°C° 0 mm 3 mps 641 mmHg 55%
    18:00 +17°C° 0 mm 3 mps 640 mmHg 61%
    19:00 +15°C° 0 mm 2 mps 640 mmHg 69%
    20:00 +13°C° 0 mm 2 mps 639 mmHg 78%
    21:00 +9°C° 0 mm 2 mps 638 mmHg 87%
    22:00 +9°C° 0 mm 2 mps 638 mmHg 86%
    23:00 +9°C° 0 mm 2 mps 638 mmHg 86%

    3 July, Monday

    Time Temperature Precipitation Wind Pressure Humidity
    00:00 +8°C° 0 mm 2 mps 638 mmHg 85%
    01:00 +8°C° 0 mm 2 mps 638 mmHg 85%
    02:00 +8°C° 0 mm 2 mps 637 mmHg 85%
    03:00 +8°C° 0 mm 2 mps 637 mmHg 84%
    04:00 +9°C° 0 mm 2 mps 638 mmHg 81%
    05:00 +10°C° 0 mm 2 mps 638 mmHg 77%
    06:00 +12°C° 0 mm 2 mps 639 mmHg 73%
    07:00 +14°C° 0 mm 2 mps 639 mmHg 65%
    08:00 +16°C° 0 mm 2 mps 640 mmHg 58%
    09:00 +18°C° 0 mm 2 mps 641 mmHg 50%
    10:00 +20°C° 0 mm 2 mps 641 mmHg 47%
    11:00 +21°C° 0 mm 2 mps 641 mmHg 44%
    12:00 +23°C° 0 mm 2 mps 641 mmHg 41%
    13:00 +23°C° 0 mm 2 mps 641 mmHg 42%
    14:00 +24°C° 0 mm 2 mps 641 mmHg 43%
    15:00 +24°C° 0 mm 3 mps 640 mmHg 43%
    16:00 +21°C° 0 mm 3 mps 640 mmHg 50%
    17:00 +20°C° 0 mm 2 mps 639 mmHg 56%
    18:00 +19°C° 0 mm 2 mps 639 mmHg 63%
    19:00 +16°C° 0 mm 2 mps 638 mmHg 72%
    20:00 +14°C° 0 mm 2 mps 638 mmHg 82%
    21:00 +12°C° 0 mm 2 mps 637 mmHg 91%
    22:00 +10°C° 0 mm 2 mps 637 mmHg 91%
    23:00 +10°C° 0 mm 2 mps 637 mmHg 91%
    Show more